This demonstration page uses our WeatherBlox Daily Observations layout. Learn more.

Left ArrowRight Arrow

36.17497, -115.13722

Hourly Observations for February 1, 2022

Temp ( °F °C ) Dew Point ( °F °C ) Humidity (%) Winds ( mph kmh ) Pressure ( in mb ) Visibility ( mi km ) Precip ( " mm )
12:53 am 00:53 Clear 46 7.8 17 -8.3 31 31 NW 3 6 29.91 1013 10 16 0.00 0.00
1:53 am 01:53 Clear 48 8.9 13 -10.6 24 24 N 6 9 29.90 1013 10 16 0.00 0.00
2:53 am 02:53 Clear 47 8.3 14 -10 26 26 WNW 8 13 29.91 1013 10 16 0.00 0.00
3:53 am 03:53 Mostly Clear 48 8.9 14 -10 25 25 NNE 5 7 29.91 1013 10 16 0.00 0.00
4:53 am 04:53 Clear 47 8.3 14 -10 26 26 Calm 29.92 1013 10 16 0.00 0.00
5:53 am 05:53 Clear 46 7.8 12 -11.1 25 25 SW 3 6 29.94 1014 10 16 0.00 0.00
6:53 am 06:53 Sunny 43 6.1 14 -10 31 31 NNW 7 11 29.96 1015 10 16 0.00 0.00
7:53 am 07:53 Sunny 50 10 14 -10 24 24 N 5 7 29.96 1015 10 16 0.00 0.00
8:53 am 08:53 Sunny 53 11.7 15 -9.4 22 22 N 9 15 29.96 1015 10 16 0.00 0.00
9:53 am 09:53 Sunny 56 13.3 15 -9.4 20 20 NW 16 26 29.96 1015 10 16 0.00 0.00
10:53 am 10:53 Sunny 57 13.9 15 -9.4 19 19 undefined N/A 29.95 1014 10 16 0.00 0.00
11:53 am 11:53 Sunny 58 14.4 14 -10 18 18 undefined N/A 29.93 1014 10 16 0.00 0.00
12:53 pm 12:53 Sunny 59 15 14 -10 17 17 undefined N/A 29.91 1013 10 16 0.00 0.00
1:53 pm 13:53 Sunny 60 15.6 11 -11.7 14 14 undefined N/A 29.88 1012 10 16 0.00 0.00
2:53 pm 14:53 Sunny 60 15.6 8 -13.3 12 12 NNW 18 30 29.87 1011 10 16 0.00 0.00
3:53 pm 15:53 Sunny 59 15 5 -15 11 11 N 14 22 29.88 1012 10 16 0.00 0.00
4:53 pm 16:53 Sunny 57 13.9 5 -15 12 12 N 10 17 29.89 1012 10 16 0.00 0.00
5:53 pm 17:53 Clear 54 12.2 3 -16.1 12 12 ENE 7 11 29.91 1013 10 16 0.00 0.00
6:53 pm 18:53 Clear 52 11.1 0 -17.8 11 11 NNW 6 9 29.95 1014 10 16 0.00 0.00
7:53 pm 19:53 Clear 51 10.6 0 -17.8 12 12 NNW 14 22 29.95 1014 10 16 0.00 0.00
8:53 pm 20:53 Clear 50 10 0 -17.8 12 12 NNW 9 15 29.96 1015 10 16 0.00 0.00
9:53 pm 21:53 Clear 48 8.9 2 -16.7 15 15 N 13 20 29.97 1015 10 16 0.00 0.00
10:53 pm 22:53 Clear 46 7.8 4 -15.6 17 17 N 12 19 29.99 1016 10 16 0.00 0.00
11:34 pm 23:34 Clear 46 7.8 4 -15.6 17 17 NW 17 28 29.95 1014 10 16 0.00 0.00
11:53 pm 23:53 Clear 46 7.8 5 -15 18 18 NW 20 31 29.98 1015 10 16 0.00 0.00

Powered by AerisWeather